This is the latest recevied weather packets stored in our database for station/object N4CRH-13. If no packets are shown the sender has not sent any weather packets the latest 10 day(s).
| Time | Temp. | Humidity | Pressure | Rain* | Wind** | Luminosity | Snow |
|---|---|---|---|---|---|---|---|
| 1777936362 | 15.56° C | 34% | 1287.8 hPa | 0 mm | - | 87 W/m² | - |
| 1777936058 | 15.56° C | 32% | 1287.6 hPa | 0 mm | - | 90 W/m² | - |
| 1777935757 | 15.56° C | 32% | 1287.2 hPa | 0 mm | - | 66 W/m² | - |
| 1777935455 | 15.56° C | 34% | 1287.3 hPa | 0 mm | - | 70 W/m² | - |
| 1777935151 | 15.56° C | 35% | 1287.2 hPa | 0 mm | - | 68 W/m² | - |
| 1777934848 | 16.11° C | 33% | 1287 hPa | 0 mm | - | 95 W/m² | - |
| 1777934546 | 16.11° C | 29% | 1287 hPa | 0 mm | - | 122 W/m² | - |
| 1777934242 | 16.11° C | 31% | 1287 hPa | 0 mm | - | 136 W/m² | - |
| 1777933937 | 16.11° C | 31% | 1287 hPa | 0 mm | - | 134 W/m² | - |
| 1777933635 | 16.11° C | 34% | 1287 hPa | 0 mm | - | 150 W/m² | - |
| 1777933332 | 16.11° C | 30% | 1287.3 hPa | 0 mm | - | 136 W/m² | - |
| 1777933029 | 16.11° C | 30% | 1287.3 hPa | 0 mm | - | 169 W/m² | - |
| 1777932726 | 16.67° C | 31% | 1286.9 hPa | 0 mm | - | 254 W/m² | - |
| 1777932422 | 16.67° C | 33% | 1287.2 hPa | 0 mm | - | 245 W/m² | - |
| 1777932120 | 16.11° C | 33% | 1286.9 hPa | 0 mm | - | 211 W/m² | - |
| 1777931816 | 16.11° C | 34% | 1287.2 hPa | 0 mm | - | 211 W/m² | - |
| 1777931514 | 16.67° C | 33% | 1287.3 hPa | 0 mm | - | 196 W/m² | - |
| 1777931209 | 17.22° C | 33% | 1287.2 hPa | 0 mm | - | 449 W/m² | - |
| 1777930906 | 16.67° C | 34% | 1287.2 hPa | 0 mm | - | 326 W/m² | - |
| 1777930602 | 16.11° C | 34% | 1287.2 hPa | 0 mm | - | 279 W/m² | - |
| 1777930299 | 16.11° C | 33% | 1287.3 hPa | 0 mm | - | 250 W/m² | - |
| 1777929995 | 16.11° C | 34% | 1287.2 hPa | 0 mm | - | 314 W/m² | - |
| 1777929692 | 16.67° C | 33% | 1287.3 hPa | 0 mm | - | 342 W/m² | - |
| 1777929390 | 17.22° C | 33% | 1287.3 hPa | 0 mm | - | 363 W/m² | - |
| 1777929086 | 18.33° C | 28% | 1287.2 hPa | 0 mm | - | 601 W/m² | - |
* Rain latest hour (hover to see other rain measurements)
** Current wind speed in m/s (hover to see current wind gust speed)